Barcelona, Spain

10:34 AM CEST on May 22, 2018 (GMT +0200)
El Prat

Weather History for LEBL - January, 2013

Change the Weather History Date:

Wednesday, January 23, 2013

  Actual Average Record
Temperature  
Mean Temperature 48 °F -  
Max Temperature 54 °F 55 °F 69 °F (2009)
Min Temperature 42 °F 41 °F 32 °F (2011)
Degree Days  
Heating Degree Days 17    
Moisture  
Dew Point 36 °F    
Average Humidity 63    
Maximum Humidity 87    
Minimum Humidity 40    
Precipitation  
Precipitation 0.31 in 0.05 in - ()
Sea Level Pressure  
Sea Level Pressure 29.62 in    
Wind  
Wind Speed 10 mph ()    
Max Wind Speed 25 mph    
Max Gust Speed 34 mph    
Visibility 6.9 miles    
Events Rain    
Averages and records for this station are not official NWS values.
T = Trace of Precipitation, MM = Missing Value Source: Averaged Metar Reports

Daily Weather History Graph

Daily Weather History Graph

Search for Another Location

Airport or City:

Astronomy

Jan. 23, 2013 Rise Set
Actual Time 8:10 AM CET 5:57 PM CET
Civil Twilight 7:40 AM CET 6:26 PM CET
Nautical Twilight 7:07 AM CET 7:00 PM CET
Astronomical Twilight 6:34 AM CET 7:33 PM CET
Moon 2:54 PM CET (1/23) 5:10 AM CET (1/23)
Length of Visible Light 10h 46m
Length of Day
9h 46m
Waxing Gibbous, 87% of the Moon is Illuminated
Jan 23
Waxing Gibbous
Jan 27
Full
Feb 3
Last Quarter
Feb 10
New
Feb 17
First Quarter

Hourly Weather History & Observations

Time (CET) Temp. Windchill Dew Point Humidity Pressure Visibility Wind Dir Wind Speed Gust Speed Precip Events Conditions
12:00 AM 46.4 °F 41.5 °F 41.0 °F 81% 29.53 in 5.6 mi NW 10.4 mph - N/A Rain Rain
12:30 AM 46.4 °F 43.5 °F 41.0 °F 81% 29.53 in 5.6 mi North 5.8 mph - N/A Rain Rain
1:00 AM 44 °F - 38 °F 73% 29.56 in 11 mi NNW 9.2 mph - - Rain Light Rain
1:00 AM 46.4 °F 43.5 °F 39.2 °F 76% 29.53 in 5.6 mi NNW 5.8 mph - N/A Rain Rain
1:30 AM 44.6 °F 41.4 °F 39.2 °F 81% 29.53 in 5.6 mi NNW 5.8 mph - N/A Rain Rain
2:00 AM 44.6 °F 41.4 °F 39.2 °F 81% 29.56 in 5.6 mi NNW 5.8 mph - N/A Rain Rain
2:30 AM 42.8 °F 35.4 °F 39.2 °F 87% 29.56 in 5.6 mi NNW 15.0 mph - N/A Rain Rain
3:00 AM 42.8 °F 38.0 °F 39.2 °F 87% 29.56 in 5.6 mi WNW 8.1 mph - N/A   Drizzle
3:30 AM 42.8 °F 38.0 °F 39.2 °F 87% 29.59 in 5.6 mi WNW 8.1 mph - N/A   Drizzle
4:00 AM 44.6 °F 40.7 °F 39.2 °F 81% 29.56 in 6.2 mi West 6.9 mph - N/A   Light Drizzle
4:30 AM 44.6 °F 40.2 °F 39.2 °F 81% 29.56 in 6.2 mi NW 8.1 mph - N/A   Light Drizzle
5:00 AM 44.6 °F - 39.2 °F 81% 29.56 in 6.2 mi Variable 2.3 mph - N/A   Drizzle
5:30 AM 44.6 °F - 39.2 °F 81% 29.56 in 6.2 mi Variable 2.3 mph - N/A   Light Drizzle
6:00 AM 44.6 °F 42.2 °F 39.2 °F 81% 29.56 in 6.2 mi WNW 4.6 mph - N/A   Scattered Clouds
6:30 AM 42.8 °F 40.1 °F 39.2 °F 87% 29.56 in 6.2 mi WNW 4.6 mph - N/A   Scattered Clouds
7:00 AM 43 °F - 35 °F 65% 29.59 in 16 mi NNW 2.3 mph - -   Partly Cloudy
7:00 AM 44.6 °F 41.4 °F 37.4 °F 76% 29.56 in 6.2 mi NW 5.8 mph - N/A   Partly Cloudy
7:30 AM 44.6 °F 40.7 °F 35.6 °F 71% 29.56 in 6.2 mi NW 6.9 mph - N/A   Partly Cloudy
8:00 AM 44.6 °F 42.2 °F 33.8 °F 66% 29.56 in 6.2 mi NW 4.6 mph - N/A   Partly Cloudy
8:30 AM 42.8 °F 39.3 °F 33.8 °F 70% 29.56 in 6.2 mi NNW 5.8 mph - N/A   Partly Cloudy
9:00 AM 42.8 °F 38.0 °F 35.6 °F 76% 29.59 in 6.2 mi NNW 8.1 mph - N/A   Partly Cloudy
9:30 AM 42.8 °F 36.6 °F 35.6 °F 76% 29.59 in 6.2 mi NW 11.5 mph 23.0 mph N/A   Partly Cloudy
10:00 AM 44.6 °F 38.1 °F 35.6 °F 71% 29.59 in 6.2 mi NW 13.8 mph - N/A   Partly Cloudy
10:30 AM 46.4 °F 40.1 °F 35.6 °F 66% 29.59 in 6.2 mi WNW 15.0 mph - N/A   Partly Cloudy
11:00 AM 46.4 °F 41.1 °F 33.8 °F 62% 29.62 in 6.2 mi WNW 11.5 mph - N/A   Partly Cloudy
11:30 AM 48.2 °F - 33.8 °F 58% 29.62 in 6.2 mi WNW 11.5 mph - N/A   Partly Cloudy
12:00 PM 50.0 °F - 33.8 °F 54% 29.62 in 6.2 mi WNW 16.1 mph - N/A   Partly Cloudy
12:30 PM 50.0 °F - 37.4 °F 62% 29.62 in 6.2 mi WNW 20.7 mph - N/A   Partly Cloudy
1:00 PM 52 °F - 35 °F 41% 29.62 in 19 mi NW 16.1 mph - -   Scattered Clouds
1:00 PM 51.8 °F - 33.8 °F 50% 29.62 in 6.2 mi NW 23.0 mph - N/A   Partly Cloudy
2:00 PM 53.6 °F - 37.4 °F 54% 29.62 in 6.2 mi NW 25.3 mph - N/A   Partly Cloudy
2:30 PM 55.4 °F - 35.6 °F 47% 29.62 in 6.2 mi NW 23.0 mph 34.5 mph N/A   Partly Cloudy
3:00 PM 55.4 °F - 33.8 °F 44% 29.62 in 6.2 mi WNW 20.7 mph - N/A   Partly Cloudy
3:30 PM 53.6 °F - 33.8 °F 47% 29.65 in 6.2 mi NW 18.4 mph - N/A   Partly Cloudy
4:00 PM 53.6 °F - 33.8 °F 47% 29.65 in 6.2 mi WNW 17.3 mph - N/A   Partly Cloudy
4:30 PM 53.6 °F - 33.8 °F 47% 29.65 in 6.2 mi NW 18.4 mph - N/A   Partly Cloudy
5:00 PM 53.6 °F - 33.8 °F 47% 29.65 in 6.2 mi NW 13.8 mph - N/A   Partly Cloudy
5:30 PM 53.6 °F - 33.8 °F 47% 29.68 in 6.2 mi NW 12.7 mph 24.2 mph N/A   Partly Cloudy
6:00 PM 53.6 °F - 33.8 °F 47% 29.68 in 6.2 mi NW 13.8 mph - N/A   Partly Cloudy
6:30 PM 51.8 °F - 33.8 °F 50% 29.68 in 6.2 mi WNW 15.0 mph - N/A   Partly Cloudy
7:00 PM 50 °F - 33 °F 40% 29.72 in 19 mi NW 8.1 mph - -   Scattered Clouds
7:00 PM 51.8 °F - 33.8 °F 50% 29.71 in 6.2 mi NW 15.0 mph - N/A   Partly Cloudy
7:30 PM 51.8 °F - 33.8 °F 50% 29.71 in 6.2 mi WNW 16.1 mph - N/A   Partly Cloudy
8:00 PM 51.8 °F - 33.8 °F 50% 29.71 in 6.2 mi WNW 16.1 mph - N/A   Partly Cloudy
8:30 PM 51.8 °F - 33.8 °F 50% 29.71 in 6.2 mi NW 21.9 mph - N/A   Partly Cloudy
9:00 PM 51.8 °F - 32.0 °F 47% 29.71 in 6.2 mi WNW 13.8 mph - N/A   Partly Cloudy
9:30 PM 50.0 °F - 33.8 °F 54% 29.74 in 6.2 mi WNW 9.2 mph - N/A   Partly Cloudy
10:00 PM 50.0 °F - 32.0 °F 50% 29.74 in 6.2 mi NW 15.0 mph - N/A   Partly Cloudy
10:30 PM 50.0 °F - 32.0 °F 50% 29.74 in 6.2 mi NW 16.1 mph - N/A   Partly Cloudy
11:00 PM 48.2 °F - 32.0 °F 54% 29.74 in 6.2 mi NW 19.6 mph - N/A   Partly Cloudy
11:30 PM 48.2 °F - 32.0 °F 54% 29.74 in 6.2 mi NW 18.4 mph - N/A   Partly Cloudy